Other Public Products
Issued by NWS Grand Forks, ND

Home | Current Version | Previous Version | Graphics & Text | Print | Product List | Glossary On
Versions: 1 2 3 4 5 6 7 8 9 10 11 12 13 14 15 16 17 18 19 20 21 22 23 24 25 26 27 28 29 30 31 32 33 34 35 36 37 38 39 40 41 42 43 44 45 46 47 48 49 50
000
FPUS83 KFGF 011910
OPUFGF
PRAIRIE TO PINES WEATHER ROUNDUP
NATIONAL WEATHER SERVICE EASTERN NORTH DAKOTA/GRAND FORKS ND
200 PM CDT TUE SEP 01 2015

 **SATELLITE DATA USED TO AUGMENT SKY COVER AT AUTOMATED STATIONS**
 *****  WEATHER ACROSS EASTERN NORTH DAKOTA  *****

CITY           SKY/WX    TMP DP  RH WIND       PRES   REMARKS
GRAND FORKS    MOSUNNY   85  55  35 S13G18    29.84S
GRAND FORKS AF SUNNY     85  53  32 SW10      29.85S
GRAND CITY NWS   N/A     86 N/A N/A S12         N/A
BUXTON         NOT AVBL
DEVILS LAKE    SUNNY     82  55  39 S6        29.84F
FARGO          SUNNY     87  54  32 S12       29.86S
WAHPETON ARPT  PTCLDY    86  50  28 SE8       29.87S
$$

 *****  WEATHER ACROSS CENTRAL AND WESTERN NORTH DAKOTA  *****

CITY           SKY/WX    TMP DP  RH WIND       PRES   REMARKS
JAMESTOWN      SUNNY     85  55  35 SE15      29.86S
BISMARCK       SUNNY     85  59  41 SE12      29.83F
MINOT          SUNNY     85  54  34 S12       29.79F
MINOT AFB      NOT AVBL
GARRISON         N/A     85  58  39 S9        29.82F
WILLISTON      SUNNY     87  54  32 S9        29.77F
DICKINSON      SUNNY     86  57  37 S9        29.81F
HETTINGER      SUNNY     82  58  43 SE12      29.85S
$$

 *****  OTHER OBSERVATIONS NORTHEAST NORTH DAKOTA  *****

CITY           SKY/WX    TMP DP  RH WIND       PRES   REMARKS
WALHALLA       FAIR      86  55  35 MISG      29.81S
LANGDON        FAIR      86  52  30 SW17G24   29.85S
CAVALIER       FAIR      84  55  37 SW12G17   29.81F
GRAFTON        FAIR      84  55  37 SW8G18    29.84S
CANDO          NOT AVBL
FORT TOTTEN      N/A     83  56  39 S7        29.95
ROLLA            N/A     82  54  36 SW18      29.84S
RUGBY          FAIR      82  57  42 S13       29.82F
 ***** THE ABOVE OBSERVATIONS ARE NON NWS ARE NOT QUALITY
        CONTROLLED AND MAY MIS-REPORT RAIN FOR SNOW...
$$

 *****  OTHER OBSERVATIONS SOUTHEAST NORTH DAKOTA *****

CITY           SKY/WX    TMP DP  RH WIND       PRES   REMARKS
COOPERSTOWN    NOT AVBL
VALLEY CITY    FAIR      82  55  39 SE13G18   29.87S
OAKES            N/A     84  79  84 SE13      29.85F HX  96
GWINNER        FAIR      84  66  54 SE8G17    29.86F
SHEYENNE NWR     N/A     86  59  39 S9        29.95S
BUFFALO        NOT AVBL
WYNDMERE         N/A     90  57  33 S9          N/A
 ***** THE ABOVE OBSERVATIONS ARE NON NWS ARE NOT QUALITY
       CONTROLLED AND MAY MIS-REPORT RAIN FOR SNOW...
$$

  *****  WEATHER ACROSS NORTHERN MINNESOTA  *****

CITY           SKY/WX    TMP DP  RH WIND       PRES   REMARKS
FLAG ISLAND    SUNNY     73  61  64 S9        29.85S
WARROAD        SUNNY     81  55  41 SW7       29.87S
ROSEAU         SUNNY     82  54  36 SW9       29.86S
HALLOCK        SUNNY     84  55  37 S13       29.82F
THF RVR FALLS  SUNNY     82  52  34 S8        29.87S
HALSTAD        NOT AVBL
FOSSTON        SUNNY     84  48  28 S8        29.90S
BAUDETTE       SUNNY     81  49  32 VRB3      29.88S
WASKISH        SUNNY     79  61  53 W3        29.90S
CROOKSTON      SUNNY     84  52  32 SW12      29.86S
$$
  *****  WEATHER ACROSS CENTRAL AND WEST MINNESOTA  *****

CITY           SKY/WX    TMP DP  RH WIND       PRES   REMARKS
BEMIDJI        SUNNY     81  53  37 S3        29.90F
PARK RAPIDS    SUNNY     84  50  30 S6        29.90F
WADENA         MOSUNNY   82  55  39 SE7       29.90S
DETROIT LAKES  SUNNY     82  50  32 SE7       29.91S
MOORHEAD       SUNNY     86  48  26 SE8       29.87S
FERGUS FALLS   MOSUNNY   84  59  42 SE8       29.87S
ELBOW LAKE     FAIR      81  62  52 SE8       29.88S
MORRIS MN      PTSUNNY   82  72  69 S14       29.89R
STAPLES        MOSUNNY   82  50  32 NE5       29.90S
WHEATON        PTSUNNY   79  68  69 S10       29.89S
$$
  *****  WEATHER ELSEWHERE ACROSS MINNESOTA  *****

CITY           SKY/WX    TMP DP  RH WIND       PRES   REMARKS
DULUTH         MOSUNNY   82  65  56 CALM      29.91S
INTRNTL FALLS  SUNNY     79  51  37 W6        29.90S
ELY            PTSUNNY   77  48  36 NW7       29.92S
CLOQUET        SUNNY     81  63  54 S3        29.91S
BRAINERD       SUNNY     82  62  50 E5        29.90F
HIBBING        SUNNY     82  53  36 VRB5      29.91F
ALEXANDRIA     PTSUNNY   83  66  56 E8        29.91F
SAINT CLOUD    PTSUNNY   84  72  67 S8        29.89F
MINNEAPOLIS    CLOUDY    83  70  64 SE8       29.89F
$$

  *****  WEATHER ACROSS SOUTH DAKOTA  *****

CITY           SKY/WX    TMP DP  RH WIND       PRES   REMARKS
SIOUX FALLS    CLOUDY    79  70  74 SE12      29.88F
BROOKINGS      CLOUDY    75  70  83 SE8       29.89F
WATERTOWN      CLOUDY    77  69  76 E6        29.86F
HURON          CLOUDY    78  69  73 S6        29.83S
SISSETON         N/A     83  69  62 S10       29.85F
ABERDEEN       MOSUNNY   83  71  67 SE9       29.82F
MITCHELL       CLOUDY    76  71  85 S7        29.86R
PIERRE         SUNNY     91  63  39 SE20G25   29.77F HX  92
MOBRIDGE       SUNNY     85  67  54 S9        29.80F
RAPID CITY     SUNNY     80  60  50 CALM      29.86F
$$

  *****  SOME WEATHER IN NEARBY STATES *****

CITY           SKY/WX    TMP DP  RH WIND       PRES   REMARKS
GLASGOW MT     SUNNY     84  41  21 W14G20    29.76F
GREAT FALLS MT PTSUNNY   78  36  21 SW23      29.84F
CHEYENNE WY    MOSUNNY   84  35  17 W13       30.12F
SCOTTSBLUFF NE SUNNY     89  50  26 VRB3      29.95F
OMAHA NE       MOSUNNY   88  70  55 S13       29.93S HX  93
DES MOINES IA  PTSUNNY   88  71  57 S10       29.96S HX  94
DAVENPORT IA   SUNNY     88  72  58 SW9       30.01S HX  94
CHICAGO IL     MOSUNNY   87  71  58 SW10G20   30.01F HX  93
EAU CLAIRE WI  MOSUNNY   86  70  58 S10       29.91S HX  90
LA CROSSE WI   SUNNY     88  74  63 S9        29.92S HX  96
$$

  *****  SOME NATIONAL WEATHER *****

CITY           SKY/WX    TMP DP  RH WIND       PRES   REMARKS
LA GUARDIA NY  MOSUNNY   87  60  40 VRB7      30.02F
RALEIGH NC     MOSUNNY   90  68  48 E5        30.07F HX  94
ATLANTA GA     PTSUNNY   87  67  51 CALM      30.11F HX  90
NEW ORLEANS LA PTSUNNY   90  70  51 E7        30.05F HX  95
OKLAHOMA CITY  MOSUNNY   91  66  43 S15       30.01F HX  93
ALBUQUERQUE NM MOSUNNY   86  46  24 CALM      30.18F
SALT LAKE CITY MOSUNNY   90  46  21 S21G26    29.96F
LOS ANGELES CA PTSUNNY   76  61  59 W13       29.93F
BOISE ID       SUNNY     80  39  23 CALM      29.90F
SEATTLE WA     CLOUDY    63  57  81 S15       29.87R
$$

*** WEATHER ACROSS MANITOBA...SASKATCHEWAN AND ONTARIO ***
                ***ONTARIO***

CITY           SKY/WX    TMP DP  RH WIND       PRES   REMARKS
GERALDTON      PTSUNNY   81  59  47 W13G20    29.85S
THUNDER BAY    CLOUDY    81  63  54 SW7       29.86S
SIOUX LOOKOUT  MOSUNNY   79  50  36 W10G18    29.86S
TORONTO        SUNNY     81  68  65 SE9       30.03F
BIG TROUT LK   SUNNY     72  59  64 NW9       29.73S
PICKLE LAKE    MOSUNNY   79  52  38 W14G20    29.79F
DRYDEN         SUNNY     79  45  29 W16       29.87S
KENORA         MOSUNNY   77  55  47 SW7       29.87F
$$
                *** MANITOBA***

CITY           SKY/WX    TMP DP  RH WIND       PRES   REMARKS
BRANDON        MOSUNNY   82  46  28 SW9       29.79F
DAUPHIN        SUNNY     82  48  30 SW9       29.73F
ISLAND LAKE    PTSUNNY   75  61  60 VRB2      29.72S
PILOT MOUND      N/A     84  48  28 SW15G22     N/A
THE PAS        NOT AVBL
THOMPSON       CLOUDY    61  57  88 VRB2      29.72F
WINNIPEG       MOSUNNY   82  52  34 SW9       29.81S
CHURCHILL      CLOUDY    50  45  81 S10       29.78R
GILLAM         CLOUDY    54  48  82 N5        29.76S
$$
                ***SASKATCHEWAN***

CITY           SKY/WX    TMP DP  RH WIND       PRES   REMARKS
ESTEVAN        MOSUNNY   88  52  29 S15G22    29.75F
KINDERSLEY     MOSUNNY   77  41  27 W12G23    29.65S
LLOYDMINSTER   MOSUNNY   68  43  40 W18G24    29.61R
PRINCE ALBERT  MOSUNNY   75  46  35 SW21G30   29.57S
REGINA         NOT AVBL
YORKTON        SUNNY     77  46  33 S10       29.73F


USA.gov is the U.S. government's official web portal to all federal, state and local government web resources and services.